Year,Month,Day,Hour,Minute,Value (Times are PST for temperature in C)
2016,11,08,00,00,15.00
2016,11,08,00,01,15.00
2016,11,08,00,02,15.00
2016,11,08,00,03,15.00
2016,11,08,00,04,15.00
2016,11,08,00,05,15.00
2016,11,08,00,06,15.00
2016,11,08,00,07,15.00
2016,11,08,00,08,15.00
2016,11,08,00,09,15.00
2016,11,08,00,10,15.00
2016,11,08,00,11,15.00
2016,11,08,00,12,15.00
2016,11,08,00,13,15.00
2016,11,08,00,14,14.90
2016,11,08,00,15,14.90
2016,11,08,00,16,14.90
2016,11,08,00,17,14.90
2016,11,08,00,18,14.90
2016,11,08,00,19,14.80
2016,11,08,00,20,14.70
2016,11,08,00,21,14.70
2016,11,08,00,22,14.60
2016,11,08,00,23,14.60
2016,11,08,00,24,14.60
2016,11,08,00,25,14.70
2016,11,08,00,26,14.70
2016,11,08,00,27,14.70
2016,11,08,00,28,14.70
2016,11,08,00,29,14.70
2016,11,08,00,30,14.70
2016,11,08,00,31,14.70
2016,11,08,00,32,14.70
2016,11,08,00,33,14.70
2016,11,08,00,34,14.70
2016,11,08,00,35,14.60
2016,11,08,00,36,14.60
2016,11,08,00,37,14.60
2016,11,08,00,38,14.60
2016,11,08,00,39,14.50
2016,11,08,00,40,14.50
2016,11,08,00,41,14.50
2016,11,08,00,42,14.50
2016,11,08,00,43,14.50
2016,11,08,00,44,14.40
2016,11,08,00,45,14.40
2016,11,08,00,46,14.40
2016,11,08,00,47,14.40
2016,11,08,00,48,14.40
2016,11,08,00,49,14.50
2016,11,08,00,50,14.50
2016,11,08,00,51,14.50
2016,11,08,00,52,14.50
2016,11,08,00,53,14.50
2016,11,08,00,54,14.50
2016,11,08,00,55,14.50
2016,11,08,00,56,14.50
2016,11,08,00,57,14.60
2016,11,08,00,58,14.60
2016,11,08,00,59,14.60
2016,11,08,01,00,14.70
2016,11,08,01,01,14.70
2016,11,08,01,02,14.70
2016,11,08,01,03,14.70
2016,11,08,01,04,14.80
2016,11,08,01,05,14.80
2016,11,08,01,06,14.80
2016,11,08,01,07,14.80
2016,11,08,01,08,14.80
2016,11,08,01,09,14.80
2016,11,08,01,10,14.80
2016,11,08,01,11,14.80
2016,11,08,01,12,14.80
2016,11,08,01,13,14.90
2016,11,08,01,14,15.00
2016,11,08,01,15,15.00
2016,11,08,01,16,15.00
2016,11,08,01,17,15.00
2016,11,08,01,18,15.00
2016,11,08,01,19,15.00
2016,11,08,01,20,15.00
2016,11,08,01,21,15.00
2016,11,08,01,22,15.00
2016,11,08,01,23,14.90
2016,11,08,01,24,14.90
2016,11,08,01,25,14.80
2016,11,08,01,26,14.80
2016,11,08,01,27,14.70
2016,11,08,01,28,14.70
2016,11,08,01,29,14.60
2016,11,08,01,30,14.50
2016,11,08,01,31,14.50
2016,11,08,01,32,14.40
2016,11,08,01,33,14.30
2016,11,08,01,34,14.30
2016,11,08,01,35,14.20
2016,11,08,01,36,14.20
2016,11,08,01,37,14.20
2016,11,08,01,38,14.10
2016,11,08,01,39,14.10
2016,11,08,01,40,14.10
2016,11,08,01,41,14.00
2016,11,08,01,42,13.90
2016,11,08,01,43,13.90
2016,11,08,01,44,13.80
2016,11,08,01,45,13.70
2016,11,08,01,46,13.60
2016,11,08,01,47,13.60
2016,11,08,01,48,13.50
2016,11,08,01,49,13.40
2016,11,08,01,50,13.40
2016,11,08,01,51,13.40
2016,11,08,01,52,13.30
2016,11,08,01,53,13.30
2016,11,08,01,54,13.30
2016,11,08,01,55,13.30
2016,11,08,01,56,13.20
2016,11,08,01,57,13.20
2016,11,08,01,58,13.20
2016,11,08,01,59,13.20
2016,11,08,02,00,13.20
2016,11,08,02,01,13.20
2016,11,08,02,02,13.20
2016,11,08,02,03,13.20
2016,11,08,02,04,13.20
2016,11,08,02,05,13.20
2016,11,08,02,06,13.20
2016,11,08,02,07,13.20
2016,11,08,02,08,13.20
2016,11,08,02,09,13.30
2016,11,08,02,10,13.30
2016,11,08,02,11,13.30
2016,11,08,02,12,13.30
2016,11,08,02,13,13.40
2016,11,08,02,14,13.40
2016,11,08,02,15,13.40
2016,11,08,02,16,13.50
2016,11,08,02,17,13.50
2016,11,08,02,18,13.60
2016,11,08,02,19,13.60
2016,11,08,02,20,13.60
2016,11,08,02,21,13.60
2016,11,08,02,22,13.60
2016,11,08,02,23,13.70
2016,11,08,02,24,13.70
2016,11,08,02,25,13.70
2016,11,08,02,26,13.70
2016,11,08,02,27,13.70
2016,11,08,02,28,13.70
2016,11,08,02,29,13.70
2016,11,08,02,30,13.70
2016,11,08,02,31,13.60
2016,11,08,02,32,13.60
2016,11,08,02,33,13.50
2016,11,08,02,34,13.50
2016,11,08,02,35,13.50
2016,11,08,02,36,13.50
2016,11,08,02,37,13.40
2016,11,08,02,38,13.40
2016,11,08,02,39,13.40
2016,11,08,02,40,13.40
2016,11,08,02,41,13.50
2016,11,08,02,42,13.50
2016,11,08,02,43,13.50
2016,11,08,02,44,13.50
2016,11,08,02,45,13.60
2016,11,08,02,46,13.60
2016,11,08,02,47,13.60
2016,11,08,02,48,13.70
2016,11,08,02,49,13.70
2016,11,08,02,50,13.70
2016,11,08,02,51,13.70
2016,11,08,02,52,13.70
2016,11,08,02,53,13.70
2016,11,08,02,54,13.70
2016,11,08,02,55,13.70
2016,11,08,02,56,13.80
2016,11,08,02,57,13.80
2016,11,08,02,58,13.80
2016,11,08,02,59,13.80
2016,11,08,03,00,13.80
2016,11,08,03,01,13.80
2016,11,08,03,02,13.80
2016,11,08,03,03,13.80
2016,11,08,03,04,13.80
2016,11,08,03,05,13.80
2016,11,08,03,06,13.80
2016,11,08,03,07,13.80
2016,11,08,03,08,13.70
2016,11,08,03,09,13.70
2016,11,08,03,10,13.70
2016,11,08,03,11,13.70
2016,11,08,03,12,13.70
2016,11,08,03,13,13.70
2016,11,08,03,14,13.70
2016,11,08,03,15,13.60
2016,11,08,03,16,13.60
2016,11,08,03,17,13.60
2016,11,08,03,18,13.60
2016,11,08,03,19,13.60
2016,11,08,03,20,13.50
2016,11,08,03,21,13.50
2016,11,08,03,22,13.50
2016,11,08,03,23,13.40
2016,11,08,03,24,13.40
2016,11,08,03,25,13.40
2016,11,08,03,26,13.40
2016,11,08,03,27,13.30
2016,11,08,03,28,13.30
2016,11,08,03,29,13.30
2016,11,08,03,30,13.30
2016,11,08,03,31,13.30
2016,11,08,03,32,13.30
2016,11,08,03,33,13.30
2016,11,08,03,34,13.30
2016,11,08,03,35,13.30
2016,11,08,03,36,13.30
2016,11,08,03,37,13.30
2016,11,08,03,38,13.30
2016,11,08,03,39,13.30
2016,11,08,03,40,13.20
2016,11,08,03,41,13.20
2016,11,08,03,42,13.20
2016,11,08,03,43,13.30
2016,11,08,03,44,13.30
2016,11,08,03,45,13.30
2016,11,08,03,46,13.40
2016,11,08,03,47,13.40
2016,11,08,03,48,13.40
2016,11,08,03,49,13.50
2016,11,08,03,50,13.50
2016,11,08,03,51,13.50
2016,11,08,03,52,13.60
2016,11,08,03,53,13.60
2016,11,08,03,54,13.60
2016,11,08,03,55,13.60
2016,11,08,03,56,13.60
2016,11,08,03,57,13.60
2016,11,08,03,58,13.60
2016,11,08,03,59,13.60
2016,11,08,04,00,13.60
2016,11,08,04,01,13.60
2016,11,08,04,02,13.60
2016,11,08,04,03,13.60
2016,11,08,04,04,13.60
2016,11,08,04,05,13.60
2016,11,08,04,06,13.60
2016,11,08,04,07,13.60
2016,11,08,04,08,13.60
2016,11,08,04,09,13.50
2016,11,08,04,10,13.40
2016,11,08,04,11,13.40
2016,11,08,04,12,13.30
2016,11,08,04,13,13.20
2016,11,08,04,14,13.20
2016,11,08,04,15,13.10
2016,11,08,04,16,13.10
2016,11,08,04,17,13.00
2016,11,08,04,18,12.90
2016,11,08,04,19,12.90
2016,11,08,04,20,12.90
2016,11,08,04,21,12.80
2016,11,08,04,22,12.80
2016,11,08,04,23,12.80
2016,11,08,04,24,12.80
2016,11,08,04,25,12.80
2016,11,08,04,26,12.70
2016,11,08,04,27,12.70
2016,11,08,04,28,12.70
2016,11,08,04,29,12.60
2016,11,08,04,30,12.60
2016,11,08,04,31,12.50
2016,11,08,04,32,12.40
2016,11,08,04,33,12.40
2016,11,08,04,34,12.30
2016,11,08,04,35,12.30
2016,11,08,04,36,12.20
2016,11,08,04,37,12.20
2016,11,08,04,38,12.20
2016,11,08,04,39,12.20
2016,11,08,04,40,12.10
2016,11,08,04,41,12.10
2016,11,08,04,42,12.10
2016,11,08,04,43,12.10
2016,11,08,04,44,12.10
2016,11,08,04,45,12.10
2016,11,08,04,46,12.20
2016,11,08,04,47,12.20
2016,11,08,04,48,12.20
2016,11,08,04,49,12.20
2016,11,08,04,50,12.30
2016,11,08,04,51,12.30
2016,11,08,04,52,12.30
2016,11,08,04,53,12.40
2016,11,08,04,54,12.40
2016,11,08,04,55,12.40
2016,11,08,04,56,12.40
2016,11,08,04,57,12.40
2016,11,08,04,58,12.40
2016,11,08,04,59,12.50
2016,11,08,05,00,12.50
2016,11,08,05,01,12.50
2016,11,08,05,02,12.50
2016,11,08,05,03,12.50
2016,11,08,05,04,12.50
2016,11,08,05,05,12.40
2016,11,08,05,06,12.50
2016,11,08,05,07,12.50
2016,11,08,05,08,12.50
2016,11,08,05,09,12.50
2016,11,08,05,10,12.50
2016,11,08,05,11,12.50
2016,11,08,05,12,12.50
2016,11,08,05,13,12.50
2016,11,08,05,14,12.50
2016,11,08,05,15,12.40
2016,11,08,05,16,12.40
2016,11,08,05,17,12.40
2016,11,08,05,18,12.40
2016,11,08,05,19,12.40
2016,11,08,05,20,12.30
2016,11,08,05,21,12.30
2016,11,08,05,22,12.30
2016,11,08,05,23,12.30
2016,11,08,05,24,12.30
2016,11,08,05,25,12.30
2016,11,08,05,26,12.30
2016,11,08,05,27,12.30
2016,11,08,05,28,12.30
2016,11,08,05,29,12.20
2016,11,08,05,30,12.20
2016,11,08,05,31,12.20
2016,11,08,05,32,12.20
2016,11,08,05,33,12.20
2016,11,08,05,34,12.20
2016,11,08,05,35,12.20
2016,11,08,05,36,12.10
2016,11,08,05,37,12.10
2016,11,08,05,38,12.10
2016,11,08,05,39,12.10
2016,11,08,05,40,12.00
2016,11,08,05,41,12.00
2016,11,08,05,42,11.90
2016,11,08,05,43,11.90
2016,11,08,05,44,11.90
2016,11,08,05,45,11.90
2016,11,08,05,46,11.90
2016,11,08,05,47,11.90
2016,11,08,05,48,11.80
2016,11,08,05,49,11.80
2016,11,08,05,50,11.80
2016,11,08,05,51,11.80
2016,11,08,05,52,11.80
2016,11,08,05,53,11.80
2016,11,08,05,54,11.80
2016,11,08,05,55,11.80
2016,11,08,05,56,11.80
2016,11,08,05,57,11.80
2016,11,08,05,58,11.80
2016,11,08,05,59,11.70
2016,11,08,06,00,11.70
2016,11,08,06,01,11.70
2016,11,08,06,02,11.60
2016,11,08,06,03,11.60
2016,11,08,06,04,11.50
2016,11,08,06,05,11.50
2016,11,08,06,06,11.40
2016,11,08,06,07,11.30
2016,11,08,06,08,11.30
2016,11,08,06,09,11.20
2016,11,08,06,10,11.20
2016,11,08,06,11,11.20
2016,11,08,06,12,11.10
2016,11,08,06,13,11.10
2016,11,08,06,14,11.10
2016,11,08,06,15,11.10
2016,11,08,06,16,11.10
2016,11,08,06,17,11.10
2016,11,08,06,18,11.10
2016,11,08,06,19,11.10
2016,11,08,06,20,11.10
2016,11,08,06,21,11.10
2016,11,08,06,22,11.10
2016,11,08,06,23,11.10
2016,11,08,06,24,11.10
2016,11,08,06,25,11.10
2016,11,08,06,26,11.00
2016,11,08,06,27,11.00
2016,11,08,06,28,11.00
2016,11,08,06,29,11.00
2016,11,08,06,30,11.00
2016,11,08,06,31,11.00
2016,11,08,06,32,11.00
2016,11,08,06,33,11.00
2016,11,08,06,34,11.10
2016,11,08,06,35,11.10
2016,11,08,06,36,11.10
2016,11,08,06,37,11.20
2016,11,08,06,38,11.20
2016,11,08,06,39,11.30
2016,11,08,06,40,11.30
2016,11,08,06,41,11.30
2016,11,08,06,42,11.40
2016,11,08,06,43,11.40
2016,11,08,06,44,11.40
2016,11,08,06,45,11.50
2016,11,08,06,46,11.50
2016,11,08,06,47,11.50
2016,11,08,06,48,11.50
2016,11,08,06,49,11.50
2016,11,08,06,50,11.40
2016,11,08,06,51,11.40
2016,11,08,06,52,11.40
2016,11,08,06,53,11.30
2016,11,08,06,54,11.30
2016,11,08,06,55,11.30
2016,11,08,06,56,11.20
2016,11,08,06,57,11.20
2016,11,08,06,58,11.30
2016,11,08,06,59,11.30
2016,11,08,07,00,11.30
2016,11,08,07,01,11.30
2016,11,08,07,02,11.30
2016,11,08,07,03,11.30
2016,11,08,07,04,11.30
2016,11,08,07,05,11.30
2016,11,08,07,06,11.30
2016,11,08,07,07,11.30
2016,11,08,07,08,11.30
2016,11,08,07,09,11.30
2016,11,08,07,10,11.20
2016,11,08,07,11,11.20
2016,11,08,07,12,11.20
2016,11,08,07,13,11.20
2016,11,08,07,14,11.20
2016,11,08,07,15,11.20
2016,11,08,07,16,11.20
2016,11,08,07,17,11.20
2016,11,08,07,18,11.20
2016,11,08,07,19,11.30
2016,11,08,07,20,11.30
2016,11,08,07,21,11.30
2016,11,08,07,22,11.40
2016,11,08,07,23,11.40
2016,11,08,07,24,11.50
2016,11,08,07,25,11.60
2016,11,08,07,26,11.60
2016,11,08,07,27,11.70
2016,11,08,07,28,11.70
2016,11,08,07,29,11.80
2016,11,08,07,30,11.70
2016,11,08,07,31,11.70
2016,11,08,07,32,11.70
2016,11,08,07,33,11.60
2016,11,08,07,34,11.60
2016,11,08,07,35,11.50
2016,11,08,07,36,11.50
2016,11,08,07,37,11.40
2016,11,08,07,38,11.40
2016,11,08,07,39,11.40
2016,11,08,07,40,11.40
2016,11,08,07,41,11.40
2016,11,08,07,42,11.40
2016,11,08,07,43,11.40
2016,11,08,07,44,11.40
2016,11,08,07,45,11.50
2016,11,08,07,46,11.50
2016,11,08,07,47,11.60
2016,11,08,07,48,11.60
2016,11,08,07,49,11.70
2016,11,08,07,50,11.80
2016,11,08,07,51,11.80
2016,11,08,07,52,11.80
2016,11,08,07,53,11.90
2016,11,08,07,54,11.90
2016,11,08,07,55,12.00
2016,11,08,07,56,12.00
2016,11,08,07,57,12.10
2016,11,08,07,58,12.10
2016,11,08,07,59,12.10
2016,11,08,08,00,12.10
2016,11,08,08,01,12.20
2016,11,08,08,02,12.20
2016,11,08,08,03,12.20
2016,11,08,08,04,12.30
2016,11,08,08,05,12.30
2016,11,08,08,06,12.30
2016,11,08,08,07,12.40
2016,11,08,08,08,12.40
2016,11,08,08,09,12.40
2016,11,08,08,10,12.40
2016,11,08,08,11,12.40
2016,11,08,08,12,12.50
2016,11,08,08,13,12.50
2016,11,08,08,14,12.60
2016,11,08,08,15,12.60
2016,11,08,08,16,12.70
2016,11,08,08,17,12.70
2016,11,08,08,18,12.80
2016,11,08,08,19,12.80
2016,11,08,08,20,12.90
2016,11,08,08,21,12.90
2016,11,08,08,22,13.00
2016,11,08,08,23,13.00
2016,11,08,08,24,13.10
2016,11,08,08,25,13.10
2016,11,08,08,26,13.10
2016,11,08,08,27,13.20
2016,11,08,08,28,13.20
2016,11,08,08,29,13.30
2016,11,08,08,30,13.30
2016,11,08,08,31,13.30
2016,11,08,08,32,13.40
2016,11,08,08,33,13.40
2016,11,08,08,34,13.40
2016,11,08,08,35,13.50
2016,11,08,08,36,13.60
2016,11,08,08,37,13.60
2016,11,08,08,38,13.70
2016,11,08,08,39,13.70
2016,11,08,08,40,13.80
2016,11,08,08,41,13.80
2016,11,08,08,42,13.80
2016,11,08,08,43,13.90
2016,11,08,08,44,14.00
2016,11,08,08,45,14.00
2016,11,08,08,46,14.10
2016,11,08,08,47,14.20
2016,11,08,08,48,14.20
2016,11,08,08,49,14.30
2016,11,08,08,50,14.40
2016,11,08,08,51,14.50
2016,11,08,08,52,14.50
2016,11,08,08,53,14.60
2016,11,08,08,54,14.70
2016,11,08,08,55,14.80
2016,11,08,08,56,14.80
2016,11,08,08,57,14.90
2016,11,08,08,58,15.00
2016,11,08,08,59,15.00
2016,11,08,09,00,15.00
2016,11,08,09,01,15.00
2016,11,08,09,02,15.00
2016,11,08,09,03,15.00
2016,11,08,09,04,15.00
2016,11,08,09,05,15.00
2016,11,08,09,06,15.00
2016,11,08,09,07,15.00
2016,11,08,09,08,15.10
2016,11,08,09,09,15.10
2016,11,08,09,10,15.20
2016,11,08,09,11,15.20
2016,11,08,09,12,15.20
2016,11,08,09,13,15.20
2016,11,08,09,14,15.20
2016,11,08,09,15,15.30
2016,11,08,09,16,15.30
2016,11,08,09,17,15.30
2016,11,08,09,18,15.30
2016,11,08,09,19,15.30
2016,11,08,09,20,15.30
2016,11,08,09,21,15.30
2016,11,08,09,22,15.30
2016,11,08,09,23,15.30
2016,11,08,09,24,15.30
2016,11,08,09,25,15.30
2016,11,08,09,26,15.30
2016,11,08,09,27,15.30
2016,11,08,09,28,15.30
2016,11,08,09,29,15.30
2016,11,08,09,30,15.30
2016,11,08,09,31,15.30
2016,11,08,09,32,15.30
2016,11,08,09,33,15.30
2016,11,08,09,34,15.30
2016,11,08,09,35,15.30
2016,11,08,09,36,15.40
2016,11,08,09,37,15.40
2016,11,08,09,38,15.50
2016,11,08,09,39,15.60
2016,11,08,09,40,15.60
2016,11,08,09,41,15.70
2016,11,08,09,42,15.70
2016,11,08,09,43,15.80
2016,11,08,09,44,15.80
2016,11,08,09,45,15.80
2016,11,08,09,46,15.80
2016,11,08,09,47,15.80
2016,11,08,09,48,15.80
2016,11,08,09,49,15.80
2016,11,08,09,50,15.90
2016,11,08,09,51,15.90
2016,11,08,09,52,15.90
2016,11,08,09,53,15.90
2016,11,08,09,54,15.90
2016,11,08,09,55,16.00
2016,11,08,09,56,16.00
2016,11,08,09,57,16.00
2016,11,08,09,58,16.10
2016,11,08,09,59,16.10
2016,11,08,10,00,16.10
2016,11,08,10,01,16.10
2016,11,08,10,02,16.20
2016,11,08,10,03,16.20
2016,11,08,10,04,16.20
2016,11,08,10,05,16.30
2016,11,08,10,06,16.30
2016,11,08,10,07,16.30
2016,11,08,10,08,16.40
2016,11,08,10,09,16.40
2016,11,08,10,10,16.40
2016,11,08,10,11,16.40
2016,11,08,10,12,16.40
2016,11,08,10,13,16.40
2016,11,08,10,14,16.50
2016,11,08,10,15,16.50
2016,11,08,10,16,16.50
2016,11,08,10,17,16.60
2016,11,08,10,18,16.60
2016,11,08,10,19,16.60
2016,11,08,10,20,16.60
2016,11,08,10,21,16.60
2016,11,08,10,22,16.60
2016,11,08,10,23,16.60
2016,11,08,10,24,16.50
2016,11,08,10,25,16.50
2016,11,08,10,26,16.50
2016,11,08,10,27,16.50
2016,11,08,10,28,16.60
2016,11,08,10,29,16.60
2016,11,08,10,30,16.70
2016,11,08,10,31,16.70
2016,11,08,10,32,16.80
2016,11,08,10,33,16.80
2016,11,08,10,34,16.90
2016,11,08,10,35,17.00
2016,11,08,10,36,17.00
2016,11,08,10,37,17.10
2016,11,08,10,38,17.10
2016,11,08,10,39,17.20
2016,11,08,10,40,17.20
2016,11,08,10,41,17.20
2016,11,08,10,42,17.30
2016,11,08,10,43,17.30
2016,11,08,10,44,17.30
2016,11,08,10,45,17.30
2016,11,08,10,46,17.30
2016,11,08,10,47,17.30
2016,11,08,10,48,17.30
2016,11,08,10,49,17.30
2016,11,08,10,50,17.20
2016,11,08,10,51,17.20
2016,11,08,10,52,17.20
2016,11,08,10,53,17.20
2016,11,08,10,54,17.20
2016,11,08,10,55,17.30
2016,11,08,10,56,17.30
2016,11,08,10,57,17.30
2016,11,08,10,58,17.40
2016,11,08,10,59,17.40
2016,11,08,11,00,17.40
2016,11,08,11,01,17.40
2016,11,08,11,02,17.40
2016,11,08,11,03,17.50
2016,11,08,11,04,17.60
2016,11,08,11,05,17.60
2016,11,08,11,06,17.70
2016,11,08,11,07,17.70
2016,11,08,11,08,17.80
2016,11,08,11,09,17.80
2016,11,08,11,10,17.80
2016,11,08,11,11,17.90
2016,11,08,11,12,17.90
2016,11,08,11,13,17.90
2016,11,08,11,14,17.90
2016,11,08,11,15,17.90
2016,11,08,11,16,17.90
2016,11,08,11,17,18.00
2016,11,08,11,18,18.00
2016,11,08,11,19,18.00
2016,11,08,11,20,18.00
2016,11,08,11,21,18.00
2016,11,08,11,22,17.90
2016,11,08,11,23,17.80
2016,11,08,11,24,17.80
2016,11,08,11,25,17.70
2016,11,08,11,26,17.60
2016,11,08,11,27,17.50
2016,11,08,11,28,17.40
2016,11,08,11,29,17.40
2016,11,08,11,30,17.40
2016,11,08,11,31,17.40
2016,11,08,11,32,17.40
2016,11,08,11,33,17.40
2016,11,08,11,34,17.40
2016,11,08,11,35,17.40
2016,11,08,11,36,17.40
2016,11,08,11,37,17.40
2016,11,08,11,38,17.40
2016,11,08,11,39,17.40
2016,11,08,11,40,17.30
2016,11,08,11,41,17.30
2016,11,08,11,42,17.30
2016,11,08,11,43,17.30
2016,11,08,11,44,17.30
2016,11,08,11,45,17.20
2016,11,08,11,46,17.20
2016,11,08,11,47,17.20
2016,11,08,11,48,17.20
2016,11,08,11,49,17.10
2016,11,08,11,50,17.10
2016,11,08,11,51,17.10
2016,11,08,11,52,17.00
2016,11,08,11,53,17.00
2016,11,08,11,54,16.90
2016,11,08,11,55,16.90
2016,11,08,11,56,16.80
2016,11,08,11,57,16.80
2016,11,08,11,58,16.80
2016,11,08,11,59,16.80
2016,11,08,12,00,16.70
2016,11,08,12,01,16.70
2016,11,08,12,02,16.70
2016,11,08,12,03,16.70
2016,11,08,12,04,16.60
2016,11,08,12,05,16.60
2016,11,08,12,06,16.60
2016,11,08,12,07,16.60
2016,11,08,12,08,16.70
2016,11,08,12,09,16.70
2016,11,08,12,10,16.70
2016,11,08,12,11,16.70
2016,11,08,12,12,16.80
2016,11,08,12,13,16.80
2016,11,08,12,14,16.90
2016,11,08,12,15,16.90
2016,11,08,12,16,16.90
2016,11,08,12,17,17.00
2016,11,08,12,18,17.00
2016,11,08,12,19,17.00
2016,11,08,12,20,17.00
2016,11,08,12,21,17.00
2016,11,08,12,22,17.00
2016,11,08,12,23,17.10
2016,11,08,12,24,17.10
2016,11,08,12,25,17.20
2016,11,08,12,26,17.20
2016,11,08,12,27,17.20
2016,11,08,12,28,17.20
2016,11,08,12,29,17.20
2016,11,08,12,30,17.20
2016,11,08,12,31,17.30
2016,11,08,12,32,17.30
2016,11,08,12,33,17.30
2016,11,08,12,34,17.30
2016,11,08,12,35,17.20
2016,11,08,12,36,17.20
2016,11,08,12,37,17.30
2016,11,08,12,38,17.30
2016,11,08,12,39,17.30
2016,11,08,12,40,17.30
2016,11,08,12,41,17.40
2016,11,08,12,42,17.50
2016,11,08,12,43,17.50
2016,11,08,12,44,17.60
2016,11,08,12,45,17.70
2016,11,08,12,46,17.80
2016,11,08,12,47,17.90
2016,11,08,12,48,17.90
2016,11,08,12,49,17.90
2016,11,08,12,50,17.90
2016,11,08,12,51,18.00
2016,11,08,12,52,18.00
2016,11,08,12,53,18.00
2016,11,08,12,54,18.00
2016,11,08,12,55,18.10
2016,11,08,12,56,18.10
2016,11,08,12,57,18.20
2016,11,08,12,58,18.20
2016,11,08,12,59,18.20
2016,11,08,13,00,18.10
2016,11,08,13,01,18.00
2016,11,08,13,02,17.90
2016,11,08,13,03,17.90
2016,11,08,13,04,17.80
2016,11,08,13,05,17.80
2016,11,08,13,06,17.70
2016,11,08,13,07,17.70
2016,11,08,13,08,17.70
2016,11,08,13,09,17.70
2016,11,08,13,10,17.70
2016,11,08,13,11,17.70
2016,11,08,13,12,17.70
2016,11,08,13,13,17.60
2016,11,08,13,14,17.60
2016,11,08,13,15,17.60
2016,11,08,13,16,17.60
2016,11,08,13,17,17.60
2016,11,08,13,18,17.60
2016,11,08,13,19,17.60
2016,11,08,13,20,17.60
2016,11,08,13,21,17.60
2016,11,08,13,22,17.70
2016,11,08,13,23,17.70
2016,11,08,13,24,17.70
2016,11,08,13,25,17.80
2016,11,08,13,26,17.80
2016,11,08,13,27,17.90
2016,11,08,13,28,18.00
2016,11,08,13,29,18.00
2016,11,08,13,30,18.10
2016,11,08,13,31,18.10
2016,11,08,13,32,18.10
2016,11,08,13,33,18.20
2016,11,08,13,34,18.20
2016,11,08,13,35,18.20
2016,11,08,13,36,18.20
2016,11,08,13,37,18.20
2016,11,08,13,38,18.30
2016,11,08,13,39,18.30
2016,11,08,13,40,18.30
2016,11,08,13,41,18.30
2016,11,08,13,42,18.40
2016,11,08,13,43,18.40
2016,11,08,13,44,18.30
2016,11,08,13,45,18.30
2016,11,08,13,46,18.30
2016,11,08,13,47,18.30
2016,11,08,13,48,18.30
2016,11,08,13,49,18.30
2016,11,08,13,50,18.30
2016,11,08,13,51,18.30
2016,11,08,13,52,18.20
2016,11,08,13,53,18.20
2016,11,08,13,54,18.10
2016,11,08,13,55,18.10
2016,11,08,13,56,18.10
2016,11,08,13,57,18.10
2016,11,08,13,58,18.10
2016,11,08,13,59,18.10
2016,11,08,14,00,18.10
2016,11,08,14,01,18.10
2016,11,08,14,02,18.20
2016,11,08,14,03,18.20
2016,11,08,14,04,18.20
2016,11,08,14,05,18.30
2016,11,08,14,06,18.30
2016,11,08,14,07,18.30
2016,11,08,14,08,18.40
2016,11,08,14,09,18.40
2016,11,08,14,10,18.40
2016,11,08,14,11,18.50
2016,11,08,14,12,18.50
2016,11,08,14,13,18.50
2016,11,08,14,14,18.50
2016,11,08,14,15,18.50
2016,11,08,14,16,18.40
2016,11,08,14,17,18.40
2016,11,08,14,18,18.30
2016,11,08,14,19,18.30
2016,11,08,14,20,18.30
2016,11,08,14,21,18.20
2016,11,08,14,22,18.20
2016,11,08,14,23,18.10
2016,11,08,14,24,18.10
2016,11,08,14,25,18.00
2016,11,08,14,26,18.00
2016,11,08,14,27,18.00
2016,11,08,14,28,18.00
2016,11,08,14,29,18.00
2016,11,08,14,30,18.00
2016,11,08,14,31,18.00
2016,11,08,14,32,18.00
2016,11,08,14,33,18.10
2016,11,08,14,34,18.10
2016,11,08,14,35,18.10
2016,11,08,14,36,18.10
2016,11,08,14,37,18.20
2016,11,08,14,38,18.20
2016,11,08,14,39,18.30
2016,11,08,14,40,18.30
2016,11,08,14,41,18.40
2016,11,08,14,42,18.50
2016,11,08,14,43,18.50
2016,11,08,14,44,18.60
2016,11,08,14,45,18.60
2016,11,08,14,46,18.60
2016,11,08,14,47,18.60
2016,11,08,14,48,18.70
2016,11,08,14,49,18.70
2016,11,08,14,50,18.80
2016,11,08,14,51,18.80
2016,11,08,14,52,18.70
2016,11,08,14,53,18.70
2016,11,08,14,54,18.70
2016,11,08,14,55,18.70
2016,11,08,14,56,18.70
2016,11,08,14,57,18.70
2016,11,08,14,58,18.70
2016,11,08,14,59,18.80
2016,11,08,15,00,18.80
2016,11,08,15,01,18.70
2016,11,08,15,02,18.70
2016,11,08,15,03,18.70
2016,11,08,15,04,18.80
2016,11,08,15,05,18.80
2016,11,08,15,06,18.80
2016,11,08,15,07,18.90
2016,11,08,15,08,18.90
2016,11,08,15,09,18.90
2016,11,08,15,10,18.90
2016,11,08,15,11,18.90
2016,11,08,15,12,18.90
2016,11,08,15,13,18.90
2016,11,08,15,14,18.90
2016,11,08,15,15,18.90
2016,11,08,15,16,18.90
2016,11,08,15,17,18.90
2016,11,08,15,18,18.90
2016,11,08,15,19,18.80
2016,11,08,15,20,18.80
2016,11,08,15,21,18.70
2016,11,08,15,22,18.60
2016,11,08,15,23,18.60
2016,11,08,15,24,18.50
2016,11,08,15,25,18.40
2016,11,08,15,26,18.30
2016,11,08,15,27,18.30
2016,11,08,15,28,18.20
2016,11,08,15,29,18.10
2016,11,08,15,30,18.10
2016,11,08,15,31,18.00
2016,11,08,15,32,17.90
2016,11,08,15,33,17.90
2016,11,08,15,34,17.80
2016,11,08,15,35,17.70
2016,11,08,15,36,17.70
2016,11,08,15,37,17.70
2016,11,08,15,38,17.70
2016,11,08,15,39,17.70
2016,11,08,15,40,17.60
2016,11,08,15,41,17.70
2016,11,08,15,42,17.70
2016,11,08,15,43,17.70
2016,11,08,15,44,17.70
2016,11,08,15,45,17.70
2016,11,08,15,46,17.60
2016,11,08,15,47,17.60
2016,11,08,15,48,17.60
2016,11,08,15,49,17.60
2016,11,08,15,50,17.60
2016,11,08,15,51,17.60
2016,11,08,15,52,17.60
2016,11,08,15,53,17.60
2016,11,08,15,54,17.60
2016,11,08,15,55,17.60
2016,11,08,15,56,17.50
2016,11,08,15,57,17.50
2016,11,08,15,58,17.50
2016,11,08,15,59,17.50
2016,11,08,16,00,17.40
2016,11,08,16,01,17.30
2016,11,08,16,02,17.30
2016,11,08,16,03,17.30
2016,11,08,16,04,17.30
2016,11,08,16,05,17.20
2016,11,08,16,06,17.20
2016,11,08,16,07,17.20
2016,11,08,16,08,17.20
2016,11,08,16,09,17.10
2016,11,08,16,10,17.10
2016,11,08,16,11,17.00
2016,11,08,16,12,17.00
2016,11,08,16,13,16.90
2016,11,08,16,14,16.90
2016,11,08,16,15,16.80
2016,11,08,16,16,16.70
2016,11,08,16,17,16.70
2016,11,08,16,18,16.70
2016,11,08,16,19,16.60
2016,11,08,16,20,16.60
2016,11,08,16,21,16.60
2016,11,08,16,22,16.60
2016,11,08,16,23,16.50
2016,11,08,16,24,16.50
2016,11,08,16,25,16.50
2016,11,08,16,26,16.40
2016,11,08,16,27,16.40
2016,11,08,16,28,16.40
2016,11,08,16,29,16.30
2016,11,08,16,30,16.30
2016,11,08,16,31,16.30
2016,11,08,16,32,16.30
2016,11,08,16,33,16.30
2016,11,08,16,34,16.20
2016,11,08,16,35,16.20
2016,11,08,16,36,16.20
2016,11,08,16,37,16.20
2016,11,08,16,38,16.20
2016,11,08,16,39,16.20
2016,11,08,16,40,16.20
2016,11,08,16,41,16.20
2016,11,08,16,42,16.20
2016,11,08,16,43,16.20
2016,11,08,16,44,16.20
2016,11,08,16,45,16.20
2016,11,08,16,46,16.20
2016,11,08,16,47,16.20
2016,11,08,16,48,16.00
2016,11,08,16,49,16.00
2016,11,08,16,50,16.00
2016,11,08,16,51,16.10
2016,11,08,16,52,16.00
2016,11,08,16,53,16.10
2016,11,08,16,54,16.10
2016,11,08,16,55,16.10
2016,11,08,16,56,16.00
2016,11,08,16,57,16.00
2016,11,08,16,58,16.00
2016,11,08,16,59,15.90
2016,11,08,17,00,15.80
2016,11,08,17,01,15.80
2016,11,08,17,02,15.80
2016,11,08,17,03,15.80
2016,11,08,17,04,15.80
2016,11,08,17,05,15.70
2016,11,08,17,06,15.70
2016,11,08,17,07,15.70
2016,11,08,17,08,15.60
2016,11,08,17,09,15.60
2016,11,08,17,10,15.60
2016,11,08,17,11,15.50
2016,11,08,17,12,15.50
2016,11,08,17,13,15.50
2016,11,08,17,14,15.40
2016,11,08,17,15,15.40
2016,11,08,17,16,15.30
2016,11,08,17,17,15.30
2016,11,08,17,18,15.20
2016,11,08,17,19,15.10